VE6CPK-13 Weather Reports


time (UTC)temp
C
wind
direction
speed
KPH
gust
KPH
rain 1hr
cm
rain 24hr
cm
rain mn
cm
humidity
%
barometer
mb
20260508015036 17 185 0.0 12.9 0.00 0.00 0.00 34 1004.2
20260508014536 17 185 0.0 12.9 0.00 0.00 0.00 33 1004.2
20260508014037 17 185 0.0 12.9 0.00 0.00 0.00 33 1004.2
20260508013535 17 185 0.0 12.9 0.00 0.00 0.00 33 1004.3
20260508013036 17 185 0.0 12.9 0.00 0.00 0.00 33 1004.2
20260508012536 17 185 0.0 12.9 0.00 0.00 0.00 33 1004.3
20260508012036 18 192 1.6 12.9 0.00 0.00 0.00 33 1004.2
20260508011536 18 186 0.0 12.9 0.00 0.00 0.00 33 1004.2
20260508011037 18 229 0.0 12.9 0.00 0.00 0.00 33 1004.2
20260508010537 18 246 0.0 12.9 0.00 0.00 0.00 33 1004.2
20260508010036 18 249 1.6 12.9 0.00 0.00 0.00 31 1004.2
20260508005535 18 5 0.0 12.9 0.00 0.00 0.00 30 1004.2
20260508005036 19 5 0.0 12.9 0.00 0.00 0.00 29 1004.2
20260508004536 19 5 0.0 12.9 0.00 0.00 0.00 30 1004.2
20260508004036 19 5 0.0 12.9 0.00 0.00 0.00 29 1004.1
20260508003536 19 5 0.0 12.9 0.00 0.00 0.00 28 1004.0
20260508003036 19 5 0.0 12.9 0.00 0.00 0.00 28 1004.1
20260508002536 19 5 0.0 12.9 0.00 0.00 0.00 29 1004.1
20260508002035 19 5 0.0 12.9 0.00 0.00 0.00 28 1004.0
20260508001535 19 5 0.0 12.9 0.00 0.00 0.00 28 1004.0
20260508001035 20 13 0.0 12.9 0.00 0.00 0.00 27 1003.9
20260508000535 20 49 1.6 12.9 0.00 0.00 0.00 28 1004.0
20260508000035 20 90 0.0 12.9 0.00 0.00 0.00 28 1003.8
20260507235535 20 86 0.0 12.9 0.00 0.00 0.00 28 1003.8
20260507235037 20 84 0.0 12.9 0.00 0.00 0.00 27 1003.8
20260507234537 20 15 0.0 12.9 0.00 0.00 0.00 28 1003.7
20260507234036 20 15 0.0 12.9 0.00 0.00 0.00 28 1003.8
20260507233536 20 19 0.0 12.9 0.00 0.00 0.00 28 1003.8
20260507233036 19 19 0.0 12.9 0.00 0.00 0.00 27 1003.7
20260507232536 19 351 1.6 12.9 0.00 0.00 0.00 27 1003.8
20260507232036 19 343 0.0 12.9 0.00 0.00 0.00 28 1003.9
20260507231536 19 9 1.6 12.9 0.00 0.00 0.00 28 1003.8
20260507231035 19 0 0.0 12.9 0.00 0.00 0.00 27 1003.7
20260507230536 19 32 0.0 12.9 0.00 0.00 0.00 27 1003.8
20260507230036 19 14 0.0 12.9 0.00 0.00 0.00 26 1003.8
20260507225536 19 5 0.0 12.9 0.00 0.00 0.00 26 1003.8
20260507225035 20 1 1.6 12.9 0.00 0.00 0.00 26 1003.8
20260507224535 20 5 1.6 12.9 0.00 0.00 0.00 26 1003.7
20260507224035 20 21 3.2 12.9 0.00 0.00 0.00 26 1003.6
20260507223537 20 10 1.6 12.9 0.00 0.00 0.00 25 1003.6
20260507223036 20 19 1.6 12.9 0.00 0.00 0.00 25 1003.7
20260507222536 20 8 0.0 12.9 0.00 0.00 0.00 25 1003.7
20260507222035 20 5 1.6 12.9 0.00 0.00 0.00 25 1003.7
20260507221535 20 5 1.6 12.9 0.00 0.00 0.00 25 1003.8
20260507221036 20 5 1.6 12.9 0.00 0.00 0.00 25 1003.8
20260507220535 20 336 1.6 12.9 0.00 0.00 0.00 26 1003.8
20260507220035 20 89 0.0 12.9 0.00 0.00 0.00 26 1003.8
20260507215535 20 13 0.0 12.9 0.00 0.00 0.00 26 1003.8
20260507215036 20 14 1.6 12.9 0.00 0.00 0.00 26 1003.8
20260507214536 20 28 3.2 12.9 0.00 0.00 0.00 27 1003.8
20260507214036 20 0 1.6 12.9 0.00 0.00 0.00 26 1003.9
20260507213535 20 10 1.6 12.9 0.00 0.00 0.00 26 1004.0
20260507213035 20 5 1.6 12.9 0.00 0.00 0.00 27 1004.1
20260507212535 20 28 1.6 12.9 0.00 0.00 0.00 26 1004.2
20260507212036 20 15 3.2 12.9 0.00 0.00 0.00 27 1004.2
20260507211535 20 355 1.6 12.9 0.00 0.00 0.00 27 1004.3
20260507211035 20 28 0.0 12.9 0.00 0.00 0.00 28 1004.3
20260507210536 20 33 1.6 12.9 0.00 0.00 0.00 27 1004.4
20260507210035 20 8 3.2 12.9 0.00 0.00 0.00 28 1004.4
20260507205535 19 27 0.0 12.9 0.00 0.00 0.00 28 1004.4
20260507205035 19 35 0.0 12.9 0.00 0.00 0.00 28 1004.5
20260507204535 19 77 0.0 12.9 0.00 0.00 0.00 28 1004.6
20260507204036 19 19 1.6 12.9 0.00 0.00 0.00 28 1004.6
20260507203535 19 202 0.0 12.9 0.00 0.00 0.00 29 1004.6
20260507203036 19 205 0.0 12.9 0.00 0.00 0.00 29 1004.6
20260507202536 19 54 0.0 12.9 0.00 0.00 0.00 29 1004.7
20260507202035 19 207 0.0 12.9 0.00 0.00 0.00 31 1004.7
20260507201534 19 5 0.0 12.9 0.00 0.00 0.00 30 1004.7
20260507201036 19 0 1.6 12.9 0.00 0.00 0.00 30 1004.7
20260507200536 19 5 1.6 12.9 0.00 0.00 0.00 29 1004.7
20260507200035 19 36 0.0 12.9 0.00 0.00 0.00 30 1004.7
20260507195536 18 12 1.6 12.9 0.00 0.00 0.00 29 1004.7
20260507195036 18 14 0.0 12.9 0.00 0.00 0.00 31 1004.7
20260507194536 18 8 3.2 12.9 0.00 0.00 0.00 29 1004.8
20260507194035 18 5 0.0 12.9 0.00 0.00 0.00 31 1004.7
20260507193536 18 29 0.0 12.9 0.00 0.00 0.00 32 1004.7
20260507193034 18 36 0.0 12.9 0.00 0.00 0.00 33 1004.7
20260507192536 18 35 0.0 12.9 0.00 0.00 0.00 31 1004.8
20260507192036 18 31 0.0 12.9 0.00 0.00 0.00 31 1004.7
20260507191535 18 70 0.0 12.9 0.00 0.00 0.00 30 1004.7
20260507191035 18 94 0.0 12.9 0.00 0.00 0.00 30 1004.7
20260507190536 18 53 0.0 12.9 0.00 0.00 0.00 30 1004.8
20260507190034 18 301 0.0 12.9 0.00 0.00 0.00 30 1004.8
20260507185535 18 11 0.0 12.9 0.00 0.00 0.00 30 1004.9
20260507185035 18 10 0.0 12.9 0.00 0.00 0.00 30 1004.9
20260507184535 18 355 0.0 12.9 0.00 0.00 0.00 30 1004.9
20260507184034 18 23 1.6 12.9 0.00 0.00 0.00 29 1004.8
20260507183534 18 0 4.8 12.9 0.00 0.00 0.00 29 1004.9
20260507183035 18 17 0.0 12.9 0.00 0.00 0.00 30 1004.9
20260507182535 18 5 0.0 12.9 0.00 0.00 0.00 30 1004.9
20260507182035 18 9 0.0 12.9 0.00 0.00 0.00 30 1004.9
20260507181535 18 18 1.6 12.9 0.00 0.00 0.00 31 1004.9
20260507181035 18 20 3.2 12.9 0.00 0.00 0.00 30 1004.9
20260507180535 18 340 0.0 12.9 0.00 0.00 0.00 30 1005.0
20260507180034 18 4 1.6 11.3 0.00 0.00 0.00 31 1004.9
20260507175534 18 33 1.6 11.3 0.00 0.00 0.00 31 1005.0
20260507175036 18 46 1.6 11.3 0.00 0.00 0.00 30 1004.8
20260507174536 18 13 0.0 11.3 0.00 0.00 0.00 32 1004.8
20260507174039 18 39 1.6 11.3 0.00 0.00 0.00 31 1004.9
20260507173538 17 5 1.6 11.3 0.00 0.00 0.00 31 1005.0
20260507173038 17 0 3.2 11.3 0.00 0.00 0.00 31 1005.1
20260507172539 17 33 0.0 11.3 0.00 0.00 0.00 31 1005.2
20260507172039 17 42 0.0 11.3 0.00 0.00 0.00 32 1005.3
20260507171701 17 33 1.6 11.3 0.00 0.00 0.00 33 1005.3
20260507171201 17 19 3.2 11.3 0.00 0.00 0.00 32 1005.3
20260507170700 17 6 1.6 11.3 0.00 0.00 0.00 32 1005.3
20260507170200 17 0 0.0 11.3 0.00 0.00 0.00 33 1005.3
20260507165700 17 70 1.6 11.3 0.00 0.00 0.00 34 1005.4
20260507165201 16 6 0.0 11.3 0.00 0.00 0.00 35 1005.3
20260507164700 16 30 4.8 11.3 0.00 0.00 0.00 34 1005.3
20260507164200 16 9 0.0 11.3 0.00 0.00 0.00 36 1005.3
20260507163700 16 32 1.6 11.3 0.00 0.00 0.00 36 1005.4
20260507163200 16 3 4.8 11.3 0.00 0.00 0.00 35 1005.4
20260507162700 15 338 1.6 9.7 0.00 0.00 0.00 36 1005.4
20260507162159 15 12 1.6 9.7 0.00 0.00 0.00 37 1005.4
20260507161659 15 11 1.6 8.0 0.00 0.00 0.00 39 1005.5
20260507161159 15 11 0.0 8.0 0.00 0.00 0.00 39 1005.5
20260507160659 15 9 0.0 8.0 0.00 0.00 0.00 39 1005.5
20260507160200 15 9 0.0 8.0 0.00 0.00 0.00 40 1005.7
20260507155700 15 9 0.0 8.0 0.00 0.00 0.00 41 1005.8
20260507155200 15 9 0.0 8.0 0.00 0.00 0.00 40 1005.8
20260507154700 15 19 0.0 8.0 0.00 0.00 0.00 41 1006.0
20260507154159 14 7 0.0 8.0 0.00 0.00 0.00 41 1006.0
20260507153659 14 19 0.0 8.0 0.00 0.00 0.00 42 1006.2
20260507153200 14 29 0.0 8.0 0.00 0.00 0.00 43 1006.1
20260507152700 14 7 1.6 8.0 0.00 0.00 0.00 42 1006.2
20260507152200 14 42 0.0 8.0 0.00 0.00 0.00 44 1006.2
20260507151700 13 350 0.0 6.4 0.00 0.00 0.00 44 1006.2
20260507151200 13 231 0.0 4.8 0.00 0.00 0.00 45 1006.2
20260507150700 13 231 0.0 4.8 0.00 0.00 0.00 46 1006.3
20260507150200 13 221 0.0 4.8 0.00 0.00 0.00 48 1006.4
20260507145659 12 221 0.0 4.8 0.00 0.00 0.00 47 1006.5
20260507145159 12 221 0.0 4.8 0.00 0.00 0.00 47 1006.5
20260507144659 12 221 0.0 4.8 0.00 0.00 0.00 47 1006.5
20260507144159 12 221 0.0 4.8 0.00 0.00 0.00 48 1006.5
20260507143659 12 221 0.0 4.8 0.00 0.00 0.00 48 1006.4
20260507143159 12 221 0.0 4.8 0.00 0.00 0.00 49 1006.3
20260507142659 12 221 0.0 4.8 0.00 0.00 0.00 49 1006.3
20260507142200 12 221 0.0 4.8 0.00 0.00 0.00 50 1006.3
20260507141659 11 221 0.0 4.8 0.00 0.00 0.00 51 1006.2
20260507141200 11 221 0.0 4.8 0.00 0.00 0.00 52 1006.2
20260507140659 11 221 0.0 4.8 0.00 0.00 0.00 53 1006.2
20260507140200 12 221 0.0 4.8 0.00 0.00 0.00 51 1006.0
20260507135700 12 221 0.0 4.8 0.00 0.00 0.00 51 1006.1
20260507135200 12 221 0.0 4.8 0.00 0.00 0.00 51 1006.1
20260507134700 12 221 0.0 4.8 0.00 0.00 0.00 50 1005.9
20260507134158 11 221 0.0 4.8 0.00 0.00 0.00 50 1005.9
20260507133659 11 221 0.0 4.8 0.00 0.00 0.00 51 1005.8
20260507133159 11 221 0.0 4.8 0.00 0.00 0.00 51 1005.8
20260507132659 11 221 0.0 4.8 0.00 0.00 0.00 52 1005.7
20260507132200 11 221 0.0 4.8 0.00 0.00 0.00 52 1005.7
20260507131700 11 221 0.0 4.8 0.00 0.00 0.00 54 1005.6
20260507131200 11 221 0.0 4.8 0.00 0.00 0.00 53 1005.7
20260507130659 11 221 0.0 4.8 0.00 0.00 0.00 52 1005.6
20260507130200 11 221 0.0 4.8 0.00 0.00 0.00 53 1005.7
20260507125700 11 221 0.0 4.8 0.00 0.00 0.00 52 1005.7
20260507125200 10 221 0.0 4.8 0.00 0.00 0.00 52 1005.8
20260507124700 10 252 0.0 4.8 0.00 0.00 0.00 53 1005.8
20260507124200 10 252 0.0 4.8 0.00 0.00 0.00 53 1005.7
20260507123700 10 252 0.0 4.8 0.00 0.00 0.00 54 1005.7
20260507123159 10 252 0.0 4.8 0.00 0.00 0.00 53 1005.7
20260507122700 10 252 0.0 4.8 0.00 0.00 0.00 52 1005.7
20260507122216 10 252 0.0 4.8 0.00 0.00 0.00 52 1005.7
20260507121716 10 252 0.0 4.8 0.00 0.00 0.00 53 1005.7
20260507121214 10 15 0.0 4.8 0.00 0.00 0.00 52 1005.7
20260507120714 10 15 0.0 4.8 0.00 0.00 0.00 52 1005.6
20260507120215 10 15 0.0 4.8 0.00 0.00 0.00 52 1005.7
20260507115714 10 15 0.0 4.8 0.00 0.00 0.00 52 1005.6
20260507115214 10 15 0.0 4.8 0.00 0.00 0.00 52 1005.6
20260507114715 10 15 0.0 4.8 0.00 0.00 0.00 52 1005.5
20260507114215 10 15 0.0 4.8 0.00 0.00 0.00 52 1005.6
20260507113715 10 15 0.0 4.8 0.00 0.00 0.00 53 1005.6
20260507113215 10 15 0.0 4.8 0.00 0.00 0.00 53 1005.5
20260507112716 10 15 0.0 4.8 0.00 0.00 0.00 52 1005.4
20260507112215 10 15 0.0 4.8 0.00 0.00 0.00 52 1005.4
20260507111714 10 15 0.0 4.8 0.00 0.00 0.00 52 1005.4
20260507111216 10 15 0.0 4.8 0.00 0.00 0.00 51 1005.4
20260507110716 10 15 0.0 4.8 0.00 0.00 0.00 51 1005.4
20260507110215 10 15 0.0 4.8 0.00 0.00 0.00 51 1005.3
20260507105714 10 15 0.0 4.8 0.00 0.00 0.00 51 1005.5
20260507105215 10 15 0.0 4.8 0.00 0.00 0.00 51 1005.3
20260507104715 10 15 0.0 4.8 0.00 0.00 0.00 51 1005.4
20260507104214 10 15 0.0 4.8 0.00 0.00 0.00 52 1005.4
20260507103714 10 15 0.0 4.8 0.00 0.00 0.00 51 1005.4
20260507103215 10 15 0.0 4.8 0.00 0.00 0.00 51 1005.4
20260507102715 10 15 0.0 4.8 0.00 0.00 0.00 50 1005.4
20260507102215 10 15 0.0 4.8 0.00 0.00 0.00 51 1005.4
20260507101715 10 15 0.0 4.8 0.00 0.00 0.00 51 1005.4
20260507101214 10 15 0.0 4.8 0.00 0.00 0.00 52 1005.4
20260507100714 10 15 0.0 4.8 0.00 0.00 0.00 52 1005.3
20260507100214 10 15 0.0 4.8 0.00 0.00 0.00 52 1005.4
20260507095715 10 15 0.0 4.8 0.00 0.00 0.00 53 1005.4
20260507095216 10 15 0.0 4.8 0.00 0.00 0.00 53 1005.4
20260507094715 10 15 0.0 4.8 0.00 0.00 0.00 53 1005.5
20260507094122 10 15 0.0 4.8 0.00 0.00 0.00 53 1005.6
20260507093623 10 15 0.0 4.8 0.00 0.00 0.00 54 1005.7
20260507093123 10 15 0.0 4.8 0.00 0.00 0.00 54 1005.6
20260507092622 10 15 0.0 4.8 0.00 0.00 0.00 54 1005.6
20260507092122 10 15 0.0 4.8 0.00 0.00 0.00 54 1005.6
20260507091622 10 15 0.0 4.8 0.00 0.00 0.00 55 1005.4
20260507091122 10 15 0.0 4.8 0.00 0.00 0.00 56 1005.3
20260507090621 10 15 0.0 4.8 0.00 0.00 0.00 56 1005.2
20260507090123 10 15 0.0 4.8 0.00 0.00 0.00 55 1005.3
20260507085622 10 15 0.0 4.8 0.00 0.00 0.00 53 1005.3
20260507085123 10 15 0.0 4.8 0.00 0.00 0.00 52 1005.4
20260507084622 10 15 0.0 4.8 0.00 0.00 0.00 52 1005.3
20260507084122 10 15 0.0 4.8 0.00 0.00 0.00 52 1005.4
20260507083623 10 15 0.0 4.8 0.00 0.00 0.00 52 1005.4
20260507083122 10 15 0.0 4.8 0.00 0.00 0.00 52 1005.4
20260507082621 10 15 0.0 4.8 0.00 0.00 0.00 52 1005.4
20260507082123 10 15 0.0 4.8 0.00 0.00 0.00 52 1005.5
20260507081622 10 15 0.0 4.8 0.00 0.00 0.00 52 1005.6
20260507081121 10 15 0.0 4.8 0.00 0.00 0.00 52 1005.7
20260507080623 10 15 0.0 4.8 0.00 0.00 0.00 52 1005.7
20260507080123 10 15 0.0 4.8 0.00 0.00 0.00 52 1005.7
20260507075622 10 15 0.0 4.8 0.00 0.00 0.00 51 1005.8
20260507075122 10 15 0.0 4.8 0.00 0.00 0.00 50 1005.9
20260507074442 10 15 0.0 4.8 0.00 0.00 0.00 50 1006.0
20260507073941 11 15 0.0 4.8 0.00 0.00 0.00 49 1006.0
20260507073509 11 15 0.0 4.8 0.00 0.00 0.00 48 1006.1
20260507073011 11 15 0.0 4.8 0.00 0.00 0.00 49 1006.1
20260507072510 11 15 0.0 4.8 0.00 0.00 0.00 48 1006.1
20260507072009 11 15 0.0 4.8 0.00 0.00 0.00 48 1006.0
20260507071511 11 15 0.0 4.8 0.00 0.00 0.00 48 1006.0
20260507071010 11 15 0.0 4.8 0.00 0.00 0.00 48 1006.0
20260507070510 11 15 0.0 4.8 0.00 0.00 0.00 48 1006.0
20260507070013 11 15 0.0 4.8 0.00 0.00 0.00 48 1006.0
20260507065511 11 15 0.0 4.8 0.00 0.00 0.00 47 1006.0
20260507065011 11 15 0.0 4.8 0.00 0.00 0.00 47 1006.0
20260507064510 11 15 0.0 4.8 0.00 0.00 0.00 47 1006.0
20260507064010 11 15 0.0 4.8 0.00 0.00 0.00 48 1006.0
20260507063509 11 15 0.0 4.8 0.00 0.00 0.00 47 1006.0
20260507063009 11 15 0.0 4.8 0.00 0.00 0.00 47 1006.0
20260507062510 11 15 0.0 4.8 0.00 0.00 0.00 46 1006.0
20260507062009 11 15 0.0 4.8 0.00 0.00 0.00 46 1006.0
20260507061509 11 10 0.0 4.8 0.00 0.00 0.00 45 1006.2
20260507061010 11 32 0.0 4.8 0.00 0.00 0.00 45 1006.2
20260507060510 11 134 0.0 0.0 0.00 0.00 0.00 44 1005.9
20260507060009 11 134 0.0 0.0 0.00 0.00 0.00 44 1005.7
20260507055509 11 134 0.0 16.1 0.00 0.00 0.00 43 1005.5
20260507055011 11 134 0.0 16.1 0.00 0.00 0.00 43 1005.5
20260507054511 11 134 0.0 16.1 0.00 0.00 0.00 43 1005.3
20260507054011 11 134 0.0 16.1 0.00 0.00 0.00 43 1005.4
20260507053510 12 134 0.0 16.1 0.00 0.00 0.00 42 1005.3
20260507053009 12 134 0.0 16.1 0.00 0.00 0.00 42 1005.2
20260507052509 12 134 0.0 16.1 0.00 0.00 0.00 41 1005.3
20260507052009 12 134 0.0 16.1 0.00 0.00 0.00 42 1005.2
20260507051510 12 134 0.0 16.1 0.00 0.00 0.00 42 1005.2
20260507051010 12 134 0.0 16.1 0.00 0.00 0.00 41 1005.4
20260507050511 12 134 0.0 16.1 0.00 0.00 0.00 40 1005.2
20260507050010 12 134 0.0 16.1 0.00 0.00 0.00 41 1005.2
20260507045510 12 134 0.0 16.1 0.00 0.00 0.00 42 1005.2
20260507045009 12 134 0.0 16.1 0.00 0.00 0.00 41 1005.2
20260507044510 12 134 0.0 16.1 0.00 0.00 0.00 40 1005.0
20260507044009 13 134 0.0 16.1 0.00 0.00 0.00 40 1004.8
20260507043510 13 134 0.0 16.1 0.00 0.00 0.00 40 1004.7
20260507043010 13 134 0.0 16.1 0.00 0.00 0.00 40 1004.6
20260507042509 13 134 0.0 16.1 0.00 0.00 0.00 39 1004.5
20260507042010 13 134 0.0 16.1 0.00 0.00 0.00 39 1004.4
20260507041510 13 134 0.0 16.1 0.00 0.00 0.00 39 1004.3
20260507041009 13 135 0.0 16.1 0.00 0.00 0.00 38 1004.4
20260507040509 13 132 0.0 16.1 0.00 0.00 0.00 38 1004.3
20260507040010 14 123 0.0 16.1 0.00 0.00 0.00 39 1004.3
20260507035510 14 84 0.0 16.1 0.00 0.00 0.00 39 1004.2
20260507035010 14 82 0.0 16.1 0.00 0.00 0.00 39 1004.1
20260507034510 14 99 0.0 16.1 0.00 0.00 0.00 39 1004.0
20260507034009 15 105 0.0 16.1 0.00 0.00 0.00 39 1004.0
20260507033509 15 47 1.6 16.1 0.00 0.00 0.00 38 1004.0
20260507033009 15 163 0.0 16.1 0.00 0.00 0.00 38 1003.9
20260507032509 15 163 0.0 16.1 0.00 0.00 0.00 37 1003.8
20260507032009 15 29 3.2 16.1 0.00 0.00 0.00 36 1003.7
20260507031508 15 352 3.2 16.1 0.00 0.00 0.00 35 1003.7
20260507031010 15 336 0.0 16.1 0.00 0.00 0.00 34 1003.7
20260507030510 16 342 3.2 16.1 0.00 0.00 0.00 33 1003.6
20260507030010 16 214 1.6 16.1 0.00 0.00 0.00 33 1003.5
20260507025510 16 25 1.6 16.1 0.00 0.00 0.00 33 1003.4
20260507025010 16 0 9.7 16.1 0.00 0.00 0.00 32 1003.2
20260507024510 16 12 4.8 16.1 0.00 0.00 0.00 31 1003.1
20260507024009 17 10 1.6 16.1 0.00 0.00 0.00 32 1003.1
20260507023509 17 10 3.2 16.1 0.00 0.00 0.00 33 1002.9
20260507023010 17 6 1.6 16.1 0.00 0.00 0.00 33 1002.8
20260507022509 17 355 0.0 16.1 0.00 0.00 0.00 33 1002.7
20260507022009 17 356 1.6 16.1 0.00 0.00 0.00 32 1002.6
20260507021510 17 29 1.6 16.1 0.00 0.00 0.00 32 1002.6
20260507021009 18 351 1.6 16.1 0.00 0.00 0.00 31 1002.5
20260507020509 18 347 3.2 16.1 0.00 0.00 0.00 31 1002.5
20260507020009 18 17 4.8 16.1 0.00 0.00 0.00 31 1002.4
20260507015510 18 0 4.8 16.1 0.00 0.00 0.00 31 1002.5